| time (UTC) | temp F | wind direction | speed MPH | gust MPH | rain 1hr in | rain 24hr in | rain mn in | humidity % | barometer mb |
| 20260506143427 | 64 | 161 | 0.0 | 0.0 | 0.00 | 0.00 | 0.00 | 10 | 1009.0 |
| 20260506142927 | 64 | 185 | 0.0 | 0.0 | 0.00 | 0.00 | 0.00 | 10 | 1009.0 |
| 20260506142427 | 64 | 184 | 0.0 | 0.0 | 0.00 | 0.00 | 0.00 | 10 | 1009.0 |
| 20260506141927 | 63 | 158 | 0.0 | 0.0 | 0.00 | 0.00 | 0.00 | 10 | 1009.0 |
| 20260506141427 | 63 | 179 | 0.0 | 0.0 | 0.00 | 0.00 | 0.00 | 10 | 1009.0 |
| 20260506140927 | 63 | 157 | 0.0 | 0.0 | 0.00 | 0.00 | 0.00 | 10 | 1009.0 |
| 20260506140427 | 63 | 166 | 0.0 | 0.0 | 0.00 | 0.00 | 0.00 | 10 | 1009.0 |
| 20260506135927 | 63 | 158 | 0.0 | 0.0 | 0.00 | 0.00 | 0.00 | 10 | 1009.0 |
| 20260506135427 | 63 | 181 | 0.0 | 0.0 | 0.00 | 0.00 | 0.00 | 13 | 1009.0 |
| 20260506134926 | 62 | 156 | 0.0 | 0.0 | 0.00 | 0.00 | 0.00 | 11 | 1009.0 |
| 20260506134427 | 61 | 166 | 0.0 | 0.0 | 0.00 | 0.00 | 0.00 | 11 | 1010.0 |
| 20260506133927 | 61 | 157 | 0.0 | 0.0 | 0.00 | 0.00 | 0.00 | 11 | 1010.0 |
| 20260506133426 | 60 | 175 | 0.0 | 0.0 | 0.00 | 0.00 | 0.00 | 11 | 1010.0 |
| 20260506132926 | 60 | 173 | 0.0 | 0.0 | 0.00 | 0.00 | 0.00 | 14 | 1010.0 |
| 20260506132427 | 61 | 175 | 0.0 | 0.0 | 0.00 | 0.00 | 0.00 | 16 | 1010.0 |
| 20260506131926 | 62 | 182 | 0.0 | 0.0 | 0.00 | 0.00 | 0.00 | 13 | 1010.0 |
| 20260506131427 | 61 | 181 | 0.0 | 0.0 | 0.00 | 0.00 | 0.00 | 11 | 1010.0 |
| 20260506130926 | 61 | 171 | 0.0 | 0.0 | 0.00 | 0.00 | 0.00 | 10 | 1010.0 |
| 20260506130426 | 61 | 178 | 0.0 | 0.0 | 0.00 | 0.00 | 0.00 | 11 | 1010.0 |
| 20260506125929 | 60 | 164 | 0.0 | 0.0 | 0.00 | 0.00 | 0.00 | 11 | 1010.0 |
| 20260506125426 | 61 | 165 | 0.0 | 0.0 | 0.00 | 0.00 | 0.00 | 11 | 1010.0 |
| 20260506124926 | 62 | 159 | 0.0 | 0.0 | 0.00 | 0.00 | 0.00 | 13 | 1010.0 |
| 20260506124426 | 62 | 158 | 0.0 | 0.0 | 0.00 | 0.00 | 0.00 | 11 | 1010.0 |
| 20260506123926 | 62 | 171 | 0.0 | 0.0 | 0.00 | 0.00 | 0.00 | 13 | 1010.0 |
| 20260506123427 | 63 | 184 | 0.0 | 0.0 | 0.00 | 0.00 | 0.00 | 13 | 1010.0 |
| 20260506122926 | 62 | 159 | 0.0 | 0.0 | 0.00 | 0.00 | 0.00 | 13 | 1010.0 |
| 20260506122426 | 62 | 175 | 0.0 | 0.0 | 0.00 | 0.00 | 0.00 | 13 | 1010.0 |
| 20260506121926 | 62 | 171 | 0.0 | 0.0 | 0.00 | 0.00 | 0.00 | 11 | 1010.0 |
| 20260506121426 | 61 | 178 | 0.0 | 0.0 | 0.00 | 0.00 | 0.00 | 10 | 1010.0 |
| 20260506120926 | 61 | 160 | 0.0 | 0.0 | 0.00 | 0.00 | 0.00 | 10 | 1010.0 |
| 20260506120426 | 62 | 172 | 0.0 | 0.0 | 0.00 | 0.00 | 0.00 | 10 | 1010.0 |
| 20260506115926 | 61 | 184 | 0.0 | 0.0 | 0.00 | 0.00 | 0.00 | 10 | 1010.0 |
| 20260506115426 | 62 | 179 | 0.0 | 0.0 | 0.00 | 0.00 | 0.00 | 11 | 1010.0 |
| 20260506114926 | 62 | 157 | 0.0 | 0.0 | 0.00 | 0.00 | 0.00 | 10 | 1010.0 |
| 20260506114426 | 61 | 175 | 0.0 | 0.0 | 0.00 | 0.00 | 0.00 | 10 | 1010.0 |
| 20260506113926 | 61 | 179 | 0.0 | 0.0 | 0.00 | 0.00 | 0.00 | 10 | 1010.0 |
| 20260506113426 | 60 | 176 | 0.0 | 0.0 | 0.00 | 0.00 | 0.00 | 10 | 1010.0 |
| 20260506112926 | 60 | 173 | 0.0 | 0.0 | 0.00 | 0.00 | 0.00 | 10 | 1010.0 |
| 20260506111426 | 60 | 162 | 0.0 | 0.0 | 0.00 | 0.00 | 0.00 | 10 | 1010.0 |
| 20260506110926 | 60 | 160 | 0.0 | 0.0 | 0.00 | 0.00 | 0.00 | 10 | 1010.0 |
| 20260506110426 | 60 | 167 | 0.0 | 0.0 | 0.00 | 0.00 | 0.00 | 10 | 1010.0 |
| 20260506105926 | 60 | 155 | 0.0 | 0.0 | 0.00 | 0.00 | 0.00 | 10 | 1010.0 |
| 20260506105426 | 59 | 171 | 0.0 | 0.0 | 0.00 | 0.00 | 0.00 | 10 | 1010.0 |
| 20260506104926 | 59 | 153 | 0.0 | 0.0 | 0.00 | 0.00 | 0.00 | 10 | 1010.0 |
| 20260506104426 | 59 | 157 | 0.0 | 0.0 | 0.00 | 0.00 | 0.00 | 10 | 1010.0 |
| 20260506103926 | 59 | 155 | 0.0 | 0.0 | 0.00 | 0.00 | 0.00 | 10 | 1010.0 |
| 20260506103427 | 59 | 166 | 0.0 | 0.0 | 0.00 | 0.00 | 0.00 | 10 | 1010.0 |
| 20260506102926 | 59 | 169 | 0.0 | 0.0 | 0.00 | 0.00 | 0.00 | 10 | 1010.0 |
| 20260506102426 | 58 | 160 | 0.0 | 0.0 | 0.00 | 0.00 | 0.00 | 10 | 1010.0 |
| 20260506101926 | 58 | 166 | 0.0 | 0.0 | 0.00 | 0.00 | 0.00 | 10 | 1010.0 |
| 20260506101426 | 57 | 150 | 0.0 | 0.0 | 0.00 | 0.00 | 0.00 | 10 | 1011.0 |
| 20260506100926 | 56 | 155 | 0.0 | 0.0 | 0.00 | 0.00 | 0.00 | 10 | 1011.0 |
| 20260506100427 | 57 | 151 | 0.0 | 0.0 | 0.00 | 0.00 | 0.00 | 10 | 1011.0 |
| 20260506095927 | 58 | 167 | 0.0 | 0.0 | 0.00 | 0.00 | 0.00 | 10 | 1010.0 |
| 20260506095427 | 60 | 171 | 0.0 | 0.0 | 0.00 | 0.00 | 0.00 | 14 | 1010.0 |
| 20260506094427 | 60 | 162 | 0.0 | 0.0 | 0.00 | 0.00 | 0.00 | 14 | 1011.0 |
| 20260506093926 | 59 | 175 | 0.0 | 0.0 | 0.00 | 0.00 | 0.00 | 14 | 1011.0 |
| 20260506093427 | 59 | 170 | 0.0 | 0.0 | 0.00 | 0.00 | 0.00 | 17 | 1011.0 |
| 20260506092927 | 59 | 161 | 0.0 | 0.0 | 0.00 | 0.00 | 0.00 | 17 | 1011.0 |
| 20260506092426 | 59 | 153 | 0.0 | 0.0 | 0.00 | 0.00 | 0.00 | 17 | 1011.0 |
| 20260506091927 | 59 | 172 | 0.0 | 0.0 | 0.00 | 0.00 | 0.00 | 17 | 1011.0 |
| 20260506091426 | 59 | 158 | 0.0 | 0.0 | 0.00 | 0.00 | 0.00 | 17 | 1010.0 |
| 20260506090926 | 59 | 162 | 0.0 | 0.0 | 0.00 | 0.00 | 0.00 | 16 | 1010.0 |
| 20260506090426 | 59 | 171 | 0.0 | 0.0 | 0.00 | 0.00 | 0.00 | 17 | 1010.0 |
| 20260506085926 | 58 | 175 | 0.0 | 0.0 | 0.00 | 0.00 | 0.00 | 17 | 1010.0 |
| 20260506085426 | 57 | 174 | 0.0 | 0.0 | 0.00 | 0.00 | 0.00 | 17 | 1010.0 |
| 20260506084927 | 57 | 174 | 0.0 | 0.0 | 0.00 | 0.00 | 0.00 | 17 | 1010.0 |
| 20260506084426 | 56 | 162 | 0.0 | 0.0 | 0.00 | 0.00 | 0.00 | 17 | 1011.0 |
| 20260506083926 | 57 | 164 | 0.0 | 0.0 | 0.00 | 0.00 | 0.00 | 17 | 1011.0 |
| 20260506083426 | 57 | 151 | 0.0 | 0.0 | 0.00 | 0.00 | 0.00 | 17 | 1011.0 |
| 20260506082926 | 58 | 172 | 0.0 | 0.0 | 0.00 | 0.00 | 0.00 | 17 | 1010.0 |
| 20260506082426 | 59 | 173 | 0.0 | 0.0 | 0.00 | 0.00 | 0.00 | 17 | 1010.0 |
| 20260506081426 | 58 | 166 | 0.0 | 0.0 | 0.00 | 0.00 | 0.00 | 17 | 1010.0 |
| 20260506080927 | 58 | 152 | 0.0 | 0.0 | 0.00 | 0.00 | 0.00 | 17 | 1010.0 |
| 20260506080426 | 57 | 153 | 0.0 | 0.0 | 0.00 | 0.00 | 0.00 | 17 | 1010.0 |
| 20260506073426 | 58 | 164 | 0.0 | 0.0 | 0.00 | 0.00 | 0.00 | 17 | 1010.0 |
| 20260506072926 | 57 | 168 | 0.0 | 0.0 | 0.00 | 0.00 | 0.00 | 14 | 1010.0 |
| 20260506072426 | 57 | 152 | 0.0 | 0.0 | 0.00 | 0.00 | 0.00 | 17 | 1010.0 |
| 20260506071926 | 57 | 168 | 0.0 | 0.0 | 0.00 | 0.00 | 0.00 | 17 | 1010.0 |
| 20260506071427 | 57 | 151 | 0.0 | 0.0 | 0.00 | 0.00 | 0.00 | 17 | 1010.0 |
| 20260506070927 | 57 | 173 | 0.0 | 0.0 | 0.00 | 0.00 | 0.00 | 17 | 1010.0 |
| 20260506070426 | 57 | 153 | 0.0 | 0.0 | 0.00 | 0.00 | 0.00 | 17 | 1010.0 |
| 20260506062426 | 57 | 178 | 0.0 | 0.0 | 0.00 | 0.00 | 0.00 | 14 | 1010.0 |
| 20260506061927 | 58 | 170 | 0.0 | 0.0 | 0.00 | 0.00 | 0.00 | 14 | 1010.0 |
| 20260506061426 | 57 | 164 | 0.0 | 0.0 | 0.00 | 0.00 | 0.00 | 14 | 1010.0 |
| 20260506060926 | 57 | 173 | 0.0 | 0.0 | 0.00 | 0.00 | 0.00 | 14 | 1010.0 |
| 20260506060426 | 57 | 161 | 0.0 | 0.0 | 0.00 | 0.00 | 0.00 | 14 | 1010.0 |
| 20260506050926 | 56 | 181 | 0.0 | 0.0 | 0.00 | 0.00 | 0.00 | 15 | 1010.0 |
| 20260506050426 | 55 | 161 | 0.0 | 0.0 | 0.00 | 0.00 | 0.00 | 15 | 1010.0 |
| 20260506044427 | 54 | 181 | 0.0 | 0.0 | 0.00 | 0.00 | 0.00 | 15 | 1010.0 |
| 20260506043926 | 53 | 156 | 0.0 | 0.0 | 0.00 | 0.00 | 0.00 | 15 | 1010.0 |
| 20260506043426 | 53 | 182 | 0.0 | 0.0 | 0.00 | 0.00 | 0.00 | 15 | 1010.0 |
| 20260506042926 | 53 | 181 | 0.0 | 0.0 | 0.00 | 0.00 | 0.00 | 15 | 1010.0 |
| 20260506042426 | 53 | 171 | 0.0 | 0.0 | 0.00 | 0.00 | 0.00 | 15 | 1010.0 |
| 20260506041926 | 53 | 158 | 0.0 | 0.0 | 0.00 | 0.00 | 0.00 | 15 | 1010.0 |
| 20260506041427 | 53 | 164 | 0.0 | 0.0 | 0.00 | 0.00 | 0.00 | 15 | 1009.0 |
| 20260506040926 | 53 | 175 | 0.0 | 0.0 | 0.00 | 0.00 | 0.00 | 15 | 1009.0 |
| 20260506040426 | 53 | 156 | 0.0 | 0.0 | 0.00 | 0.00 | 0.00 | 15 | 1009.0 |
| 20260506035926 | 53 | 157 | 0.0 | 0.0 | 0.00 | 0.00 | 0.00 | 15 | 1009.0 |
| 20260506035426 | 54 | 157 | 0.0 | 0.0 | 0.00 | 0.00 | 0.00 | 15 | 1009.0 |
| 20260506034926 | 54 | 156 | 0.0 | 0.0 | 0.00 | 0.00 | 0.00 | 15 | 1009.0 |
| 20260506034426 | 54 | 166 | 0.0 | 0.0 | 0.00 | 0.00 | 0.00 | 15 | 1009.0 |
| 20260506033926 | 55 | 155 | 0.0 | 0.0 | 0.00 | 0.00 | 0.00 | 15 | 1009.0 |
| 20260506033426 | 55 | 161 | 0.0 | 0.0 | 0.00 | 0.00 | 0.00 | 15 | 1009.0 |
| 20260506032926 | 54 | 181 | 0.0 | 0.0 | 0.00 | 0.00 | 0.00 | 15 | 1009.0 |
| 20260506032426 | 53 | 174 | 0.0 | 0.0 | 0.00 | 0.00 | 0.00 | 15 | 1009.0 |
| 20260506031926 | 53 | 157 | 0.0 | 0.0 | 0.00 | 0.00 | 0.00 | 15 | 1009.0 |
| 20260506031426 | 53 | 156 | 0.0 | 0.0 | 0.00 | 0.00 | 0.00 | 15 | 1009.0 |
| 20260506030926 | 52 | 179 | 0.0 | 0.0 | 0.00 | 0.00 | 0.00 | 15 | 1009.0 |
| 20260506030426 | 52 | 165 | 0.0 | 0.0 | 0.00 | 0.00 | 0.00 | 15 | 1009.0 |
| 20260506025926 | 53 | 175 | 0.0 | 0.0 | 0.00 | 0.00 | 0.00 | 15 | 1009.0 |
| 20260506025426 | 53 | 173 | 0.0 | 0.0 | 0.00 | 0.00 | 0.00 | 15 | 1009.0 |
| 20260506024926 | 53 | 174 | 0.0 | 0.0 | 0.00 | 0.00 | 0.00 | 15 | 1009.0 |
| 20260506024426 | 54 | 172 | 0.0 | 0.0 | 0.00 | 0.00 | 0.00 | 15 | 1009.0 |
| 20260506023926 | 54 | 159 | 0.0 | 0.0 | 0.00 | 0.00 | 0.00 | 15 | 1009.0 |
| 20260506023426 | 53 | 160 | 0.0 | 0.0 | 0.00 | 0.00 | 0.00 | 15 | 1009.0 |
| 20260506022926 | 53 | 175 | 0.0 | 0.0 | 0.00 | 0.00 | 0.00 | 15 | 1010.0 |
| 20260506022426 | 53 | 176 | 0.0 | 0.0 | 0.00 | 0.00 | 0.00 | 15 | 1010.0 |
| 20260506021926 | 54 | 159 | 0.0 | 0.0 | 0.00 | 0.00 | 0.00 | 15 | 1010.0 |
| 20260506021426 | 54 | 172 | 0.0 | 0.0 | 0.00 | 0.00 | 0.00 | 15 | 1010.0 |
| 20260506020927 | 55 | 160 | 0.0 | 0.0 | 0.00 | 0.00 | 0.00 | 15 | 1010.0 |
| 20260506020426 | 54 | 186 | 0.0 | 0.0 | 0.00 | 0.00 | 0.00 | 15 | 1010.0 |
| 20260506015926 | 53 | 165 | 0.0 | 0.0 | 0.00 | 0.00 | 0.00 | 10 | 1010.0 |
| 20260506015426 | 53 | 161 | 0.0 | 0.0 | 0.00 | 0.00 | 0.00 | 10 | 1010.0 |
| 20260506014926 | 53 | 178 | 0.0 | 0.0 | 0.00 | 0.00 | 0.00 | 10 | 1010.0 |
| 20260506014426 | 54 | 185 | 0.0 | 0.0 | 0.00 | 0.00 | 0.00 | 10 | 1010.0 |
| 20260506013926 | 54 | 187 | 0.0 | 0.0 | 0.00 | 0.00 | 0.00 | 10 | 1010.0 |
| 20260506013426 | 54 | 162 | 0.0 | 0.0 | 0.00 | 0.00 | 0.00 | 10 | 1010.0 |
| 20260506012926 | 55 | 161 | 0.0 | 0.0 | 0.00 | 0.00 | 0.00 | 10 | 1010.0 |
| 20260506012426 | 55 | 175 | 0.0 | 0.0 | 0.00 | 0.00 | 0.00 | 10 | 1010.0 |
| 20260506011926 | 55 | 162 | 0.0 | 0.0 | 0.00 | 0.00 | 0.00 | 10 | 1010.0 |
| 20260506011426 | 55 | 165 | 0.0 | 0.0 | 0.00 | 0.00 | 0.00 | 10 | 1010.0 |
| 20260506010926 | 55 | 182 | 0.0 | 0.0 | 0.00 | 0.00 | 0.00 | 10 | 1010.0 |
| 20260506010426 | 55 | 161 | 0.0 | 0.0 | 0.00 | 0.00 | 0.00 | 10 | 1010.0 |
| 20260506005927 | 56 | 162 | 0.0 | 0.0 | 0.00 | 0.00 | 0.00 | 10 | 1010.0 |
| 20260506005426 | 56 | 178 | 0.0 | 0.0 | 0.00 | 0.00 | 0.00 | 10 | 1010.0 |
| 20260506004926 | 56 | 186 | 0.0 | 0.0 | 0.00 | 0.00 | 0.00 | 10 | 1010.0 |
| 20260506004426 | 56 | 175 | 0.0 | 0.0 | 0.00 | 0.00 | 0.00 | 10 | 1010.0 |
| 20260506003926 | 56 | 176 | 0.0 | 0.0 | 0.00 | 0.00 | 0.00 | 10 | 1010.0 |
| 20260506003427 | 56 | 164 | 0.0 | 0.0 | 0.00 | 0.00 | 0.00 | 10 | 1010.0 |
| 20260506002927 | 56 | 175 | 0.0 | 0.0 | 0.00 | 0.00 | 0.00 | 10 | 1010.0 |
| 20260506002426 | 56 | 162 | 0.0 | 0.0 | 0.00 | 0.00 | 0.00 | 10 | 1010.0 |
| 20260506001926 | 56 | 176 | 0.0 | 0.0 | 0.00 | 0.00 | 0.00 | 10 | 1010.0 |
| 20260506001426 | 56 | 188 | 0.0 | 0.0 | 0.00 | 0.00 | 0.00 | 10 | 1010.0 |
| 20260506000926 | 56 | 183 | 0.0 | 0.0 | 0.00 | 0.00 | 0.00 | 10 | 1010.0 |
| 20260506000426 | 56 | 162 | 0.0 | 0.0 | 0.00 | 0.00 | 0.00 | 10 | 1010.0 |
| 20260505235926 | 56 | 185 | 0.0 | 0.0 | 0.00 | 0.00 | 0.00 | 10 | 1010.0 |
| 20260505235426 | 56 | 185 | 0.0 | 0.0 | 0.00 | 0.00 | 0.00 | 10 | 1010.0 |
| 20260505234927 | 56 | 173 | 0.0 | 0.0 | 0.00 | 0.00 | 0.00 | 10 | 1010.0 |
| 20260505234426 | 56 | 176 | 0.0 | 0.0 | 0.00 | 0.00 | 0.00 | 10 | 1010.0 |
| 20260505233926 | 55 | 163 | 0.0 | 0.0 | 0.00 | 0.00 | 0.00 | 10 | 1010.0 |
| 20260505233426 | 55 | 189 | 0.0 | 0.0 | 0.00 | 0.00 | 0.00 | 10 | 1010.0 |
| 20260505232926 | 55 | 162 | 0.0 | 0.0 | 0.00 | 0.00 | 0.00 | 10 | 1010.0 |
| 20260505232426 | 54 | 188 | 0.0 | 0.0 | 0.00 | 0.00 | 0.00 | 10 | 1010.0 |
| 20260505231926 | 54 | 189 | 0.0 | 0.0 | 0.00 | 0.00 | 0.00 | 10 | 1010.0 |
| 20260505231426 | 54 | 184 | 0.0 | 0.0 | 0.00 | 0.00 | 0.00 | 10 | 1011.0 |
| 20260505230926 | 54 | 182 | 0.0 | 0.0 | 0.00 | 0.00 | 0.00 | 10 | 1011.0 |
| 20260505230426 | 54 | 185 | 0.0 | 0.0 | 0.00 | 0.00 | 0.00 | 10 | 1011.0 |
| 20260505225926 | 54 | 184 | 0.0 | 0.0 | 0.00 | 0.00 | 0.00 | 10 | 1011.0 |
| 20260505225428 | 54 | 176 | 0.0 | 0.0 | 0.00 | 0.00 | 0.00 | 10 | 1011.0 |
| 20260505224926 | 54 | 177 | 0.0 | 0.0 | 0.00 | 0.00 | 0.00 | 10 | 1011.0 |
| 20260505224426 | 54 | 177 | 0.0 | 0.0 | 0.00 | 0.00 | 0.00 | 10 | 1011.0 |
| 20260505223926 | 54 | 172 | 0.0 | 0.0 | 0.00 | 0.00 | 0.00 | 10 | 1011.0 |
| 20260505223426 | 54 | 170 | 0.0 | 0.0 | 0.00 | 0.00 | 0.00 | 10 | 1011.0 |
| 20260505222926 | 54 | 162 | 0.0 | 0.0 | 0.00 | 0.00 | 0.00 | 10 | 1011.0 |
| 20260505222426 | 54 | 162 | 0.0 | 0.0 | 0.00 | 0.00 | 0.00 | 10 | 1011.0 |
| 20260505221426 | 53 | 172 | 0.0 | 0.0 | 0.00 | 0.00 | 0.00 | 10 | 1011.0 |
| 20260505220926 | 53 | 164 | 0.0 | 0.0 | 0.00 | 0.00 | 0.00 | 10 | 1011.0 |
| 20260505220426 | 53 | 164 | 0.0 | 0.0 | 0.00 | 0.00 | 0.00 | 10 | 1011.0 |
| 20260505215426 | 53 | 186 | 0.0 | 0.0 | 0.00 | 0.00 | 0.00 | 10 | 1011.0 |
| 20260505214926 | 53 | 175 | 0.0 | 0.0 | 0.00 | 0.00 | 0.00 | 10 | 1011.0 |
| 20260505214426 | 53 | 190 | 0.0 | 0.0 | 0.00 | 0.00 | 0.00 | 10 | 1011.0 |
| 20260505213926 | 53 | 167 | 0.0 | 0.0 | 0.00 | 0.00 | 0.00 | 10 | 1011.0 |
| 20260505213426 | 53 | 173 | 0.0 | 0.0 | 0.00 | 0.00 | 0.00 | 10 | 1011.0 |
| 20260505212926 | 53 | 176 | 0.0 | 0.0 | 0.00 | 0.00 | 0.00 | 10 | 1011.0 |
| 20260505212426 | 53 | 183 | 0.0 | 0.0 | 0.00 | 0.00 | 0.00 | 10 | 1011.0 |
| 20260505211926 | 53 | 165 | 0.0 | 0.0 | 0.00 | 0.00 | 0.00 | 10 | 1011.0 |
| 20260505211426 | 53 | 186 | 0.0 | 0.0 | 0.00 | 0.00 | 0.00 | 10 | 1011.0 |
| 20260505210926 | 53 | 175 | 0.0 | 0.0 | 0.00 | 0.00 | 0.00 | 10 | 1011.0 |
| 20260505210426 | 53 | 189 | 0.0 | 0.0 | 0.00 | 0.00 | 0.00 | 10 | 1011.0 |
| 20260505205926 | 53 | 167 | 0.0 | 0.0 | 0.00 | 0.00 | 0.00 | 10 | 1011.0 |
| 20260505205429 | 52 | 180 | 0.0 | 0.0 | 0.00 | 0.00 | 0.00 | 10 | 1011.0 |
| 20260505204926 | 52 | 186 | 0.0 | 0.0 | 0.00 | 0.00 | 0.00 | 10 | 1011.0 |
| 20260505204426 | 52 | 182 | 0.0 | 0.0 | 0.00 | 0.00 | 0.00 | 10 | 1011.0 |
| 20260505203927 | 52 | 187 | 0.0 | 0.0 | 0.00 | 0.00 | 0.00 | 10 | 1011.0 |
| 20260505203426 | 52 | 195 | 0.0 | 0.0 | 0.00 | 0.00 | 0.00 | 10 | 1011.0 |
| 20260505202926 | 52 | 180 | 0.0 | 0.0 | 0.00 | 0.00 | 0.00 | 10 | 1011.0 |
| 20260505202426 | 53 | 175 | 0.0 | 0.0 | 0.00 | 0.00 | 0.00 | 10 | 1011.0 |
| 20260505201926 | 53 | 195 | 0.0 | 0.0 | 0.00 | 0.00 | 0.00 | 10 | 1011.0 |
| 20260505201426 | 52 | 187 | 0.0 | 0.0 | 0.00 | 0.00 | 0.00 | 10 | 1012.0 |
| 20260505200426 | 52 | 193 | 0.0 | 0.0 | 0.00 | 0.00 | 0.00 | 10 | 1012.0 |
| 20260505195926 | 52 | 198 | 0.0 | 0.0 | 0.00 | 0.00 | 0.00 | 10 | 1012.0 |
| 20260505195426 | 52 | 193 | 0.0 | 0.0 | 0.00 | 0.00 | 0.00 | 10 | 1012.0 |
| 20260505194926 | 52 | 187 | 0.0 | 0.0 | 0.00 | 0.00 | 0.00 | 10 | 1012.0 |
| 20260505194426 | 52 | 205 | 0.0 | 0.0 | 0.00 | 0.00 | 0.00 | 10 | 1011.0 |
| 20260505193926 | 52 | 188 | 0.0 | 0.0 | 0.00 | 0.00 | 0.00 | 10 | 1011.0 |
| 20260505193426 | 52 | 209 | 0.0 | 0.0 | 0.00 | 0.00 | 0.00 | 10 | 1011.0 |
| 20260505192926 | 52 | 209 | 0.0 | 0.0 | 0.00 | 0.00 | 0.00 | 10 | 1011.0 |
| 20260505192426 | 51 | 189 | 0.0 | 0.0 | 0.00 | 0.00 | 0.00 | 10 | 1011.0 |
| 20260505191926 | 51 | 213 | 0.0 | 0.0 | 0.00 | 0.00 | 0.00 | 10 | 1011.0 |
| 20260505191426 | 51 | 214 | 0.0 | 0.0 | 0.00 | 0.00 | 0.00 | 10 | 1011.0 |
| 20260505190926 | 51 | 199 | 0.0 | 0.0 | 0.00 | 0.00 | 0.00 | 10 | 1011.0 |
| 20260505190426 | 51 | 190 | 0.0 | 0.0 | 0.00 | 0.00 | 0.00 | 10 | 1011.0 |
| 20260505185926 | 51 | 209 | 0.0 | 0.0 | 0.00 | 0.00 | 0.00 | 10 | 1011.0 |
| 20260505185426 | 51 | 205 | 0.0 | 0.0 | 0.00 | 0.00 | 0.00 | 10 | 1011.0 |
| 20260505184926 | 51 | 212 | 0.0 | 0.0 | 0.00 | 0.00 | 0.00 | 10 | 1011.0 |
| 20260505184426 | 52 | 205 | 0.0 | 0.0 | 0.00 | 0.00 | 0.00 | 10 | 1011.0 |
| 20260505183926 | 52 | 190 | 0.0 | 0.0 | 0.00 | 0.00 | 0.00 | 10 | 1011.0 |
| 20260505182926 | 53 | 211 | 0.0 | 0.0 | 0.00 | 0.00 | 0.00 | 10 | 1011.0 |
| 20260505182426 | 53 | 192 | 0.0 | 0.0 | 0.00 | 0.00 | 0.00 | 10 | 1011.0 |
| 20260505181926 | 53 | 215 | 0.0 | 0.0 | 0.00 | 0.00 | 0.00 | 10 | 1011.0 |
| 20260505181426 | 54 | 199 | 0.0 | 0.0 | 0.00 | 0.00 | 0.00 | 10 | 1011.0 |
| 20260505180926 | 54 | 202 | 0.0 | 0.0 | 0.00 | 0.00 | 0.00 | 10 | 1011.0 |
| 20260505180426 | 55 | 211 | 0.0 | 0.0 | 0.00 | 0.00 | 0.00 | 10 | 1011.0 |
| 20260505175926 | 55 | 213 | 0.0 | 0.0 | 0.00 | 0.00 | 0.00 | 10 | 1011.0 |
| 20260505175426 | 55 | 214 | 0.0 | 0.0 | 0.00 | 0.00 | 0.00 | 10 | 1011.0 |
| 20260505174926 | 55 | 214 | 0.0 | 0.0 | 0.00 | 0.00 | 0.00 | 10 | 1011.0 |
| 20260505174426 | 56 | 187 | 0.0 | 0.0 | 0.00 | 0.00 | 0.00 | 10 | 1011.0 |
| 20260505173926 | 56 | 210 | 0.0 | 0.0 | 0.00 | 0.00 | 0.00 | 10 | 1011.0 |
| 20260505173426 | 56 | 190 | 0.0 | 0.0 | 0.00 | 0.00 | 0.00 | 10 | 1011.0 |
| 20260505172926 | 56 | 190 | 0.0 | 0.0 | 0.00 | 0.00 | 0.00 | 10 | 1011.0 |
| 20260505172426 | 56 | 204 | 0.0 | 0.0 | 0.00 | 0.00 | 0.00 | 10 | 1011.0 |
| 20260505171926 | 57 | 183 | 0.0 | 0.0 | 0.00 | 0.00 | 0.00 | 10 | 1011.0 |
| 20260505171426 | 57 | 190 | 0.0 | 0.0 | 0.00 | 0.00 | 0.00 | 10 | 1011.0 |
| 20260505170926 | 58 | 202 | 0.0 | 0.0 | 0.00 | 0.00 | 0.00 | 10 | 1011.0 |
| 20260505170426 | 59 | 192 | 0.0 | 0.0 | 0.00 | 0.00 | 0.00 | 10 | 1011.0 |
| 20260505165926 | 60 | 185 | 0.0 | 0.0 | 0.00 | 0.00 | 0.00 | 10 | 1011.0 |
| 20260505165500 | 60 | 180 | 0.0 | 0.0 | 0.00 | 0.00 | 0.00 | 10 | 1011.0 |
| 20260505165426 | 60 | 180 | 0.0 | 0.0 | 0.00 | 0.00 | 0.00 | 10 | 1011.0 |
| 20260505164926 | 60 | 193 | 0.0 | 0.0 | 0.00 | 0.00 | 0.00 | 10 | 1011.0 |
| 20260505164426 | 59 | 184 | 0.0 | 0.0 | 0.00 | 0.00 | 0.00 | 10 | 1011.0 |
| 20260505163926 | 59 | 197 | 0.0 | 0.0 | 0.00 | 0.00 | 0.00 | 10 | 1011.0 |
| 20260505163426 | 58 | 188 | 0.0 | 0.0 | 0.00 | 0.00 | 0.00 | 10 | 1011.0 |
| 20260505162926 | 58 | 202 | 0.0 | 0.0 | 0.00 | 0.00 | 0.00 | 10 | 1011.0 |
| 20260505162426 | 58 | 202 | 0.0 | 0.0 | 0.00 | 0.00 | 0.00 | 10 | 1011.0 |
| 20260505161926 | 58 | 201 | 0.0 | 0.0 | 0.00 | 0.00 | 0.00 | 10 | 1011.0 |
| 20260505161426 | 58 | 172 | 0.0 | 0.0 | 0.00 | 0.00 | 0.00 | 10 | 1011.0 |
| 20260505160926 | 58 | 181 | 0.0 | 0.0 | 0.00 | 0.00 | 0.00 | 10 | 1011.0 |
| 20260505160427 | 58 | 178 | 0.0 | 0.0 | 0.00 | 0.00 | 0.00 | 10 | 1011.0 |
| 20260505152926 | 60 | 194 | 0.0 | 0.0 | 0.00 | 0.00 | 0.00 | 10 | 1011.0 |
| 20260505152426 | 59 | 195 | 0.0 | 0.0 | 0.00 | 0.00 | 0.00 | 10 | 1011.0 |
| 20260505151926 | 59 | 192 | 0.0 | 0.0 | 0.00 | 0.00 | 0.00 | 10 | 1011.0 |
| 20260505151426 | 59 | 196 | 0.0 | 0.0 | 0.00 | 0.00 | 0.00 | 10 | 1011.0 |
| 20260505150926 | 60 | 200 | 0.0 | 0.0 | 0.00 | 0.00 | 0.00 | 10 | 1011.0 |
| 20260505150426 | 60 | 177 | 0.0 | 0.0 | 0.00 | 0.00 | 0.00 | 10 | 1011.0 |